Погода Нижний Тагил

Погода Нижний Тагил : погода сейчас, прогноз погоды и архив. Всё, что Вы хотите узнать о погоде Нижний Тагил!

Хотите узнать прогноз погоды Нижний Тагил? Тогда Вам сюда: Погода Нижний Тагил

Поиск расширенной информации на нашем сайте:

Другие новости

Новости СМИ2

Главная страница сайта

Новости сайта

03.07.2017

Напоминаем, что на нашем специализированном сайте Метеоцентр.Азия вы можете получить высокодетализированные автоматические прогнозы погоды по пунктам России, СНГ и мира в авиационном формате (включающие направление и скорость ветра, видимость, явления погоды, количество и форму облачности, нижнюю и верхнюю границу облачности).

Рекомендуем: Сравнить цены на лазерная гравировка.

Погода Нижний Тагил - сегодня

Время (UTC), дата Ветер
(°,м/с) 
Видим.   Явления Облачность Т
(°С)
Тd
(°С)
f(%) Тe
(°С)
Pmin
(гПа)
dP
(гПа)
Po
(мм)
O2
(г/м3)
Тmin Tmax R s Состояние
почвы
00 18.11.17 260 (З) 20000 м    6/3 600 м средняя 
[Sc|Ac lent]
-4.1 -5 93 -5  1015.1  1.1  737  302           
03 18.11.17 260 (З) 20000 м    8/5 600 м кучево-дожд., средняя 
[Cb cap|Ac lent]
-3.3 -4.7 90 -5  1016.2  1.1  738  301  -4.3      <0.5  мокрый или
старый снег
50-90% 
06 18.11.17 250 (З) 20000 м    9/8 600 м кучево-дожд., средняя 
[Cb cap|Ac trans]
-3.1 -4.5 90 -5  1016.8  0.6  738  301  -5.2         
09 18.11.17 240 (ЮЗ) 4000 м  слаб. крупа{ливн. осадки}  10/10 600 м кучево-дожд. 
[Cb cap]
-2.3 -4.6 84 -4  1017.2  0.4  738  301           
12 18.11.17 220 (ЮЗ) 20000 м  {ливн. осадки}  10/10 600 м кучево-дожд. 
[Cb cap]
-2.7 -4.4 88 -4  1017  -0.3  738  301           
15 18.11.17 220 (ЮЗ) 20000 м    9/6 600 м кучево-дожд., средняя 
[Cb cap|Ac trans]
-2.6 -3.5 94 -4  1016.5  -0.4  738  301    -2.1  0.7     
18 18.11.17 240 (ЮЗ) 20000 м    8/8 600 м кучево-дожд. 
[Cb cap]
-1.7 -3.1 90 -4  1016.2  -0.2  738  299           
21 18.11.17 240 (ЮЗ) 4000 м  слаб. ливневой снег  10/10 600 м кучево-дожд. 
[Cb cap]
-1.4 -2.5 92 -4  1017  0.8  738  299           
00 19.11.17 250 (З) 20000 м  {ливн. осадки}  10/10 600 м кучево-дожд. 
[Cb cap]
-0.8 -2 92 -3  1018.7  1.8  740  299           
03 19.11.17 230 (ЮЗ) 4000 м  слаб. снег  10/0 средняя 
[As trans]
-0.6 -2 90 -2  1020.3  1.5  741  299  -2.6    0.0  мокрый или
старый снег
50-90% 
06 19.11.17 250 (З) 20000 м  {снег}  10/10 600 м кучево-дожд. 
[Cb cap]
-0.4 -2.4 86 -2  1022  1.7  742  300           
09 19.11.17 240 (ЮЗ) 3{10}  20000 м    10/10 600 м 
[Sc]
-0.3 -2.7 84 -2  1023.4  1.4  743  300           
12 19.11.17 220 (ЮЗ) 20000 м    10/10 600 м 
[Sc]
-0.4 -2.1 88 -1  1024.1  0.7  744  300           
15 19.11.17 230 (ЮЗ) 20000 м    10/10 600 м 
[Sc]
-0.1 -1.5 90 -2  1023.8  -0.3  743  300    -0.1  0.0     
18 19.11.17 240 (ЮЗ) 20000 м    10/10 600 м 
[Sc]
+0 -1.5 90 -2  1023.8  743  300           
21 19.11.17 230 (ЮЗ) 20000 м    10/10 600 м 
[Sc]
-0.1 -2.3 85 -3  1024.3  0.4  744  300           
00 20.11.17 230 (ЮЗ) 20000 м    10/10 600 м 
[Sc]
-0.6 -3.2 83 -3  1024.6  0.3  744  301           
03 20.11.17 230 (ЮЗ) 20000 м    10/6 600 м средняя 
[Sc|As op]
-1.1 -4.1 80 -2  1024.4  -0.3  744  301  -1.1      мокрый или
старый снег
50-90% 
06 20.11.17 200 (Ю) 20000 м    10/10 600 м 
[Sc]
-1.1 -4.1 80 -2  1023.8  -0.6  743  301  -1.4         
09 20.11.17 180 (Ю) 20000 м    10/0 средняя 
[Ac As]
-0.3 -2.8 83 -1  1023.2  -0.4  743  300           
12 20.11.17 190 (Ю) 20000 м    10/10 600 м кучево-дожд. 
[Cb cap]
-0.3 -2.2 87 -1  1023.1  -0.1  743  300           
15 20.11.17 180 (Ю) 20000 м    9/9 600 м 
[Sc]
-0.6 -2 90 -2  1022.2  -0.9  742  300    +0       
18 20.11.17 190 (Ю) 20000 м    9/9 600 м 
[Sc]
+0.2 -1.2 90 -2  1021.2  -0.9  742  299           
21 20.11.17 240 (ЮЗ) 20000 м    9/9 600 м 
[Sc]
+1.2 -0.4 89 1020.9  0.1  741  297           
00 21.11.17 240 (ЮЗ) 20000 м    10/10 600 м 
[Sc]
+1.6 +0.2 90 +1  1021.6  0.6  742  297           
Время (UTC), дата Ветер
(°,м/с) 
Видим.   Явления Облачность Т
(°С)
Тd
(°С)
f(%) Тe
(°С)
Pmin
(гПа)
dP
(гПа)
Po
(мм)
O2
(г/м3)
Тmin Tmax R s Состояние
почвы

Для получения пояснительной информации подведите курсор к названию столбца.

ПОГОДА Нижний Тагил - архив

Всё, что Вы хотите узнать о погоде Нижний Тагил - удобно и подробно!

Выберите нужную дату (начиная с 1 января 2015* года) и нажмите кнопку "Найти".
Будут отображены архивные сводки погоды по пункту Нижний Тагил, начиная с указанной даты.


Отображать данные в формате CSV (для использования в таблицах Excel)


Внимание! Наш архив погоды предназначен исключительно для личного некоммерческого использования в познавательных целях. Если Вам необходимы официальные справки о состоянии погоды (для производственных, юридических, коммерческих и т.п. целей), обращайтесь в органы Росгидромета.

*Примечание: данная дата относится к архиву по метеостанциям СССР (Россия, СНГ, Балтия).
Архив по метеостанциям Зарубежной Европы и Азии (кроме Китая) хранится 10 дней, по другим регионам земного шара (Китай, Африка, Америка, Австралия, Океания) - 1 день.

Нижний Тагил - район местоположения метеостанции


Название, широта, долгота, высота метеостанции:
Нижний Тагил 57.9°ш. 60.1°д. 260 м над ур. моря [Российская Федерация]

Дополнительная информация

В oтличие oт бoльшинства пoгoдных сайтoв мы публикуем пoдрoбную метеoинфoрмацию в детальнoм прoфессиoнальнoм фoрмате.

Характеристики температуры и влажнoсти вoздуха измеряются на высoте 2 м в тени вдали oт зданий и деревьев.
Скoрoсть ветра измеряется на высoте 10 м (на урoвне рoста челoвека скoрoсть ветра ниже в 1.5-2 раза). Если метеoстанция нахoдится в гoрoде или в лесу, тo скoрoсть ветра занижена на 2-4 м/с пo сравнению с oткрытым местoм. Скoрoсть ветра над акватoриями крупных рек и oзёр, а также на вершинах хoлмoв на 2-5 м/с выше, чем в oбычных услoвиях.
Атмoсфернoе давление в разных тoчках местнoсти мoжет значительнo oтличаться oт давления на метеoстанции, в зависимoсти oт услoвий рельефа (при пoдъёме на 10 м давление пoнижается примернo на 1 мм рт.ст.).